Date,TemperatureHighF,TemperatureAvgF,TemperatureLowF,DewpointHighF,DewpointAvgF,DewpointLowF,HumidityHigh,HumidityAvg,HumidityLow,PressureMaxIn,PressureMinIn,WindSpeedMaxMPH,WindSpeedAvgMPH,GustSpeedMaxMPH,PrecipitationSumIn
2013-1-1,26.2,22.9,19.2,15.6,12.8,9.9,69,65,60,30.51,30.40,10,2,10,0.00
2013-1-2,25.5,22.0,16.8,19.4,14.6,9.0,78,73,69,30.52,30.41,10,1,10,0.00
2013-1-3,28.5,25.5,21.3,21.7,18.8,14.1,79,75,71,30.47,30.37,13,2,13,0.00
2013-1-4,31.8,28.3,25.3,23.7,20.8,18.4,79,73,69,30.50,30.30,20,8,20,0.00
2013-1-5,35.0,27.1,15.9,29.1,21.5,10.6,87,79,72,30.60,30.30,6,0,6,0.00
2013-1-6,34.5,32.8,29.6,30.7,28.1,22.3,88,83,72,30.63,30.21,8,0,8,0.00
2013-1-7,35.7,31.4,27.5,25.7,22.9,21.6,79,71,57,30.67,30.42,10,3,10,0.00
2013-1-8,39.3,31.8,27.3,30.7,24.9,21.6,79,75,70,30.57,30.44,6,0,6,0.00
2013-1-9,43.1,36.6,29.1,32.0,27.6,22.0,80,70,55,30.78,30.29,22,6,22,0.00
2013-1-10,42.0,32.7,23.5,30.7,24.8,18.3,82,73,61,30.92,30.53,5,0,5,0.00
2013-1-11,49.1,40.7,33.4,46.5,37.5,28.1,91,89,81,30.53,30.08,12,1,12,0.00
2013-1-12,54.8,46.5,39.2,46.0,38.8,30.3,91,76,55,30.32,30.12,18,3,18,0.00
2013-1-13,39.2,34.2,26.2,32.5,29.9,20.5,87,84,71,30.40,30.18,15,0,15,0.00
2013-1-14,27.6,22.4,15.4,20.5,14.5,9.1,79,72,64,30.78,30.40,15,4,15,0.00
2013-1-15,28.7,20.7,12.7,19.7,13.7,7.4,81,74,64,30.78,30.51,8,0,8,0.00
2013-1-16,34.3,25.3,15.0,26.8,19.0,9.7,82,77,63,30.51,30.09,18,4,18,0.00
2013-1-17,30.7,23.4,15.9,25.7,15.4,6.1,82,71,63,30.70,30.31,12,0,12,0.00
2013-1-18,34.3,20.8,4.8,25.3,13.0,-1.7,77,72,65,30.78,30.21,10,2,10,0.00
2013-1-19,41.1,37.3,33.2,34.2,29.8,24.0,83,74,68,30.23,29.85,18,3,18,0.00
2013-1-20,33.9,19.6,13.2,29.3,11.0,4.6,84,69,62,30.54,29.86,25,6,25,0.00
2013-1-21,15.0,11.8,3.9,8.3,2.7,-4.3,76,67,58,30.50,30.32,15,4,15,0.00
2013-1-22,10.2,4.7,0.3,-0.4,-4.5,-8.0,70,65,59,30.63,30.47,13,3,13,0.00
2013-1-23,17.0,10.1,2.4,9.6,3.1,-4.8,77,73,67,30.63,30.42,8,1,8,0.00
2013-1-24,17.2,10.7,5.5,6.2,2.2,-0.7,77,69,55,30.98,30.53,3,0,3,0.00
2013-1-25,22.8,16.8,10.9,14.8,9.7,3.0,79,74,69,30.86,30.36,0,0,0,0.00
2013-1-26,31.6,21.5,12.9,20.3,13.4,5.6,81,72,57,30.78,30.40,4,0,4,0.00
2013-1-27,29.8,21.9,11.8,22.3,14.6,5.2,84,74,63,30.81,30.47,5,0,5,0.00
2013-1-28,37.9,33.3,26.7,34.7,29.7,22.5,89,87,84,30.47,30.19,7,1,8,0.00
2013-1-29,51.9,40.8,32.5,49.6,37.9,29.1,92,90,87,30.38,29.76,3,0,3,0.00
2013-1-30,51.6,39.1,29.4,49.3,36.7,25.0,92,91,84,29.77,29.45,18,1,18,0.00
2013-1-31,29.3,21.8,17.9,25.0,13.9,9.9,84,72,61,30.24,29.62,22,8,22,0.00
2013-2-1,19.2,16.6,13.2,11.1,8.7,5.8,76,71,63,30.55,30.24,14,5,14,0.00
2013-2-2,19.2,14.0,6.0,10.9,6.6,-0.5,79,72,60,30.50,30.37,6,0,6,0.00
2013-2-3,21.0,12.0,2.4,12.8,5.2,-3.7,78,74,67,30.40,30.21,61,1,61,0.00
2013-2-4,22.8,15.4,7.7,13.7,8.2,1.1,80,73,61,30.37,30.27,6,0,6,0.00
2013-2-5,26.6,14.5,2.1,21.3,8.2,-4.0,81,75,71,30.35,30.11,7,0,7,0.00
2013-2-6,30.5,21.8,8.4,19.0,13.7,2.6,80,71,60,30.64,30.35,8,1,8,0.00
2013-2-7,30.3,27.2,24.6,24.4,21.8,18.6,86,80,73,30.62,30.32,0,0,0,0.00
2013-2-8,31.2,25.7,12.5,25.1,18.7,5.9,87,75,62,30.75,30.29,9,0,9,0.00
2013-2-9,30.9,14.3,-1.3,20.8,6.5,-7.6,78,71,61,30.81,30.62,6,0,6,0.00
2013-2-10,35.2,21.5,5.9,31.9,15.5,-0.4,88,78,71,30.63,29.98,0,0,0,0.00
2013-2-11,39.0,35.5,31.6,36.1,30.2,25.5,90,81,73,30.18,29.84,22,8,22,0.00
2013-2-12,31.6,29.0,25.7,25.9,21.9,18.3,79,74,72,30.38,30.17,13,6,13,0.00
2013-2-13,34.7,29.9,25.7,27.1,23.5,18.8,80,77,73,30.29,30.10,7,0,7,0.00
2013-2-14,39.0,32.0,28.9,33.8,27.2,23.2,87,82,77,30.21,29.97,10,1,10,0.00
2013-2-15,29.3,24.9,19.4,23.2,16.5,10.9,78,71,62,30.50,30.21,9,2,9,0.00
2013-2-16,24.6,18.4,14.1,15.8,11.5,7.8,80,75,66,30.48,30.38,3,0,3,0.00
2013-2-17,26.4,14.2,1.4,11.9,4.7,-5.3,76,66,52,30.58,30.47,6,0,6,0.00
2013-2-18,40.2,28.5,10.7,33.2,18.5,2.8,84,66,52,30.53,29.88,7,0,7,0.00
2013-2-19,39.5,29.9,18.6,36.2,24.0,9.6,88,79,68,30.27,29.70,22,7,22,0.00
2013-2-20,23.9,19.6,15.4,13.4,10.8,7.8,74,68,61,30.62,30.26,11,2,11,0.00
2013-2-21,26.6,20.2,17.2,17.4,11.4,8.7,82,69,56,30.78,30.61,7,0,7,0.00
2013-2-22,28.5,25.0,21.0,24.6,20.1,16.0,85,82,77,30.65,30.21,3,0,3,0.00
2013-2-23,35.2,29.9,26.4,28.1,24.3,21.1,88,79,66,30.26,30.19,10,2,10,0.00
2013-2-24,40.4,31.1,25.5,29.2,23.3,21.0,85,73,55,30.52,30.24,4,0,4,0.00
2013-2-25,39.3,32.1,25.8,27.5,23.2,18.5,78,70,59,30.59,30.50,3,0,3,0.00
2013-2-26,35.7,30.3,22.8,29.1,23.8,16.6,87,77,69,30.53,29.99,8,1,8,0.00
2013-2-27,34.3,33.4,32.5,31.0,30.2,29.1,89,88,87,29.99,29.91,5,0,5,0.00
2013-2-28,35.7,33.0,29.1,29.8,27.0,20.5,89,79,69,30.39,29.98,9,1,9,0.00
2013-3-1,30.9,26.6,22.4,20.5,17.4,12.7,74,68,61,30.53,30.38,7,1,7,0.00
2013-3-2,28.0,23.2,20.1,17.7,14.3,11.8,75,69,63,30.52,30.45,7,0,7,0.00
2013-3-3,34.3,22.5,11.4,20.1,13.0,5.5,78,67,54,30.46,30.37,7,0,7,0.00
2013-3-4,37.2,23.6,10.5,20.8,12.8,4.3,77,64,47,30.52,30.45,3,0,3,0.00
2013-3-5,32.3,23.8,13.4,23.4,16.7,7.2,81,74,66,30.53,30.31,8,0,8,0.00
2013-3-6,41.5,33.8,28.5,31.2,26.5,23.4,81,75,64,30.59,30.34,7,0,7,0.00
2013-3-7,37.9,31.4,25.5,27.2,21.8,15.6,83,68,54,30.79,30.58,6,0,6,0.00
2013-3-8,46.2,30.5,17.9,28.8,19.8,11.6,78,65,49,30.88,30.77,5,0,5,0.00
2013-3-9,44.7,33.0,21.9,30.1,24.1,16.0,80,70,56,30.78,30.39,3,0,3,0.00
2013-3-10,44.4,38.3,32.3,40.0,33.6,27.9,89,83,79,30.39,30.16,3,0,3,0.00
2013-3-11,46.2,41.2,35.7,43.7,38.1,31.6,91,89,84,30.16,29.82,15,2,15,0.00
2013-3-12,35.7,32.4,28.5,31.9,26.8,23.0,86,80,71,30.25,29.97,13,5,13,0.00
2013-3-13,35.7,28.6,23.3,23.4,18.5,14.2,81,67,49,30.56,30.23,10,2,10,0.00
2013-3-14,41.0,30.5,19.4,24.7,18.5,12.5,76,62,48,30.62,30.40,10,2,10,0.00
2013-3-15,41.9,34.7,30.3,29.9,25.0,18.8,77,68,51,30.41,30.23,12,3,12,0.00
2013-3-16,32.9,27.6,22.6,23.2,20.4,16.1,80,74,64,30.43,30.21,6,0,6,0.00
2013-3-17,30.5,23.7,18.6,16.2,12.0,8.0,75,61,44,30.68,30.43,7,0,7,0.00
2013-3-18,31.6,26.3,18.6,27.9,19.6,10.1,86,76,67,30.60,29.92,6,0,6,0.00
2013-3-19,32.3,25.4,21.9,28.4,17.8,15.1,86,73,64,30.25,29.92,21,8,21,0.00
2013-3-20,30.7,23.0,17.4,17.4,13.1,9.6,72,66,56,30.30,30.23,15,5,15,0.00
2013-3-21,33.0,25.8,17.4,22.3,17.3,10.2,79,70,62,30.31,30.20,9,1,9,0.00
2013-3-22,39.2,30.3,24.4,25.8,20.4,15.9,72,67,58,30.41,30.30,10,2,10,0.00
2013-3-23,38.1,32.2,28.5,26.7,22.7,20.0,73,68,61,30.50,30.40,6,0,6,0.00
2013-3-24,37.0,30.8,25.3,26.0,22.4,18.9,80,71,61,30.45,30.13,8,0,8,0.00
2013-3-25,39.7,34.3,29.6,27.1,25.0,22.0,76,69,57,30.34,30.08,11,1,11,0.00
2013-3-26,42.9,36.2,31.4,31.5,26.7,23.5,78,69,59,30.50,30.34,8,0,8,0.00
2013-3-27,49.6,37.9,29.8,32.2,25.6,21.7,75,62,47,30.57,30.48,9,1,9,0.00
2013-3-28,55.2,40.1,28.9,32.9,25.4,20.6,73,57,39,30.64,30.56,7,0,7,0.00
2013-3-29,56.4,39.1,25.7,32.9,23.9,18.5,76,56,38,30.65,30.55,8,1,8,0.00
2013-3-30,56.4,38.8,25.7,32.2,23.9,18.0,76,57,34,30.59,30.23,10,1,10,0.00
2013-3-31,57.7,44.3,35.2,41.9,34.4,26.7,84,69,53,30.23,29.98,14,3,14,0.00
2013-4-1,35.4,30.3,26.7,26.8,16.2,0.0,71,56,46,30.45,30.09,13,2,13,0.00
2013-4-2,40.8,31.0,21.9,19.9,16.0,12.7,75,55,38,30.60,30.45,13,1,13,0.00
2013-4-3,46.7,33.3,22.2,23.2,16.6,11.5,67,51,37,30.79,30.60,9,0,9,0.00
2013-4-4,57.0,41.0,27.6,30.8,23.7,16.3,67,51,37,30.68,30.27,61,3,61,0.00
2013-4-5,49.2,38.4,30.9,28.7,22.0,14.7,72,53,35,30.59,30.33,7,0,7,0.00
2013-4-6,48.3,38.4,29.1,29.4,23.4,18.7,68,56,42,30.60,30.05,7,0,7,0.00
2013-4-7,51.6,44.4,37.5,44.6,34.1,28.5,79,68,48,30.42,29.88,18,4,18,0.00
2013-4-8,43.5,37.1,28.5,38.4,32.0,23.0,88,82,70,30.42,30.06,2,0,2,0.00
2013-4-9,40.8,39.1,37.2,37.6,35.8,33.3,89,88,86,30.47,30.27,5,0,5,0.00
2013-4-10,39.3,37.3,36.3,35.2,33.4,29.9,89,86,77,30.45,30.30,8,0,8,0.00
2013-4-11,37.0,33.5,32.1,30.1,29.3,28.5,88,84,73,30.43,30.11,8,0,8,0.00
2013-4-12,39.3,34.8,0.0,35.2,31.4,-2.7,89,87,83,30.14,29.93,9,1,9,0.00
2013-4-13,40.2,35.7,33.6,34.2,29.5,26.2,87,78,66,30.33,30.10,19,5,19,0.00
2013-4-14,44.9,36.5,0.0,33.2,29.0,-7.1,86,75,60,30.47,30.29,5,0,6,0.00
2013-4-15,64.5,49.1,34.3,52.8,41.9,29.3,87,77,64,30.29,30.18,9,1,9,0.00
2013-4-16,59.0,49.3,41.5,46.6,37.7,28.6,87,66,45,30.65,30.25,13,2,13,0.00
2013-4-17,48.2,40.7,36.1,36.3,32.8,28.7,87,74,59,30.75,30.43,5,0,5,0.00
2013-4-18,58.8,49.2,39.9,56.2,46.2,36.3,91,89,87,30.43,29.81,9,0,9,0.00
2013-4-19,58.8,42.3,34.1,54.9,35.2,24.8,90,76,65,30.07,29.71,21,9,21,0.00
2013-4-20,38.4,33.5,28.4,26.1,21.2,18.0,72,61,49,30.81,30.06,13,3,13,0.00
2013-4-21,53.4,37.3,0.0,30.9,23.8,-14.3,75,59,41,30.97,30.79,5,0,5,0.00
2013-4-22,65.6,47.7,31.8,39.7,30.9,23.1,72,54,33,30.81,30.53,5,0,5,0.00
2013-4-23,58.8,48.2,38.3,49.2,39.3,29.8,86,72,58,30.54,30.17,6,0,6,0.00
2013-4-24,47.8,39.3,33.6,33.8,30.2,25.3,85,71,47,30.45,30.23,10,1,10,0.00
2013-4-25,52.5,41.8,35.2,39.8,30.0,25.5,83,64,46,30.68,30.38,19,2,19,0.00
2013-4-26,62.0,47.3,30.3,38.6,32.6,24.0,81,59,41,30.78,30.62,10,1,10,0.00
2013-4-27,74.4,57.6,43.1,49.2,39.9,0.0,73,54,37,30.66,30.47,7,1,7,0.00
2013-4-28,71.9,55.3,44.9,51.0,43.0,34.2,79,64,46,30.47,30.23,6,0,6,0.00
2013-4-29,75.9,62.1,52.3,56.7,50.8,47.3,84,68,49,30.29,30.21,6,0,6,0.00
2013-4-30,74.4,62.8,55.0,59.5,53.4,48.5,89,72,58,30.39,30.25,10,0,10,0.00
2013-5-1,79.5,65.0,55.9,60.3,53.4,49.6,81,67,43,30.58,30.37,3,0,3,0.00
2013-5-2,82.9,67.9,55.7,56.6,52.5,48.7,80,59,39,30.61,30.46,5,0,5,0.00
2013-5-3,74.1,62.4,55.2,55.4,45.7,36.8,70,56,36,30.51,30.43,2,0,2,0.00
2013-5-4,75.9,62.6,51.2,51.3,43.0,36.8,72,50,33,30.50,30.43,6,0,6,0.00
2013-5-5,76.2,60.9,45.3,50.2,42.7,36.6,81,54,30,30.50,30.41,5,0,5,0.00
2013-5-6,78.4,60.8,43.5,49.3,40.5,34.3,78,52,27,30.47,30.36,5,0,5,0.00
2013-5-7,80.2,61.2,44.4,52.7,42.6,36.4,76,53,32,30.47,30.38,4,0,4,0.00
2013-5-8,83.3,62.8,48.0,54.5,44.1,38.2,70,52,34,30.42,30.32,7,0,7,0.00
2013-5-9,81.3,60.0,0.0,56.0,44.5,-18.8,78,58,37,30.35,30.24,3,0,3,0.00
2013-5-10,57.7,45.2,40.2,46.0,39.4,36.2,86,81,59,30.31,30.24,9,0,9,0.00
2013-5-11,60.0,48.1,39.3,49.9,40.8,33.2,85,76,65,30.27,30.06,11,3,11,0.00
2013-5-12,47.3,40.3,35.6,34.6,30.5,0.0,80,69,58,30.46,30.19,11,4,11,0.00
2013-5-13,57.5,35.8,0.0,33.8,25.4,-14.7,76,65,39,30.52,30.45,8,2,8,0.00
2013-5-14,57.5,43.6,0.0,45.3,33.5,-5.7,79,66,59,30.11,30.06,0,0,0,0.00
2013-5-15,70.8,51.6,0.0,52.7,44.3,-18.3,82,77,41,30.14,29.88,6,1,6,0.00
2013-5-16,78.6,62.6,48.7,48.3,41.8,36.8,72,49,28,30.44,30.24,8,0,8,0.00
2013-5-17,62.4,51.9,41.3,45.4,41.2,35.2,82,68,51,30.56,30.44,2,0,2,0.00
2013-5-18,73.2,59.4,49.2,51.6,46.1,41.9,80,63,44,30.56,30.41,6,0,6,0.00
2013-5-19,82.2,59.8,49.8,61.1,49.7,42.2,81,70,49,30.43,30.23,0,0,0,0.00
2013-5-20,89.7,70.3,61.8,70.5,61.5,54.6,87,75,50,30.27,30.11,14,0,14,0.00
2013-5-21,78.6,69.3,61.5,66.7,62.3,57.8,91,79,64,30.20,30.07,8,1,8,0.00
2013-5-22,67.2,63.9,58.8,64.5,60.5,55.2,91,88,83,30.10,29.98,6,0,6,0.00
2013-5-23,58.8,50.2,43.7,55.6,46.3,37.5,90,86,79,30.57,30.03,7,0,7,0.00
2013-5-24,60.4,47.1,35.9,43.4,36.7,31.2,83,68,45,30.75,30.56,6,0,6,0.00
2013-5-25,69.0,51.2,37.0,48.4,39.1,32.3,86,66,40,30.80,30.66,6,0,6,0.00
2013-5-26,72.1,53.2,37.9,48.0,39.8,32.7,84,63,36,30.74,30.62,5,0,5,0.00
2013-5-27,73.0,55.4,39.0,46.8,41.0,33.7,84,61,36,30.64,30.39,5,0,5,0.00
2013-5-28,70.8,58.8,51.6,65.5,54.2,45.1,91,85,68,30.40,30.13,2,0,2,0.00
2013-5-29,80.2,69.2,63.3,68.4,63.2,59.0,91,82,64,30.34,30.13,9,1,9,0.00
2013-5-30,86.1,71.9,61.1,73.0,64.4,57.9,90,78,59,30.37,30.28,10,0,10,0.00
2013-5-31,81.6,72.7,66.2,66.6,64.2,61.3,88,76,58,30.31,30.18,8,1,8,0.00
2013-6-1,82.2,71.7,66.2,66.4,63.0,61.0,86,75,54,30.21,30.03,14,2,14,0.00
2013-6-2,66.5,58.8,46.5,61.2,50.9,38.1,88,75,62,30.40,29.99,9,1,9,0.00
2013-6-3,70.5,54.6,39.9,49.7,41.5,35.0,84,64,41,30.47,30.36,9,1,9,0.00
2013-6-4,74.8,57.5,41.9,50.7,42.8,36.3,82,60,40,30.59,30.47,1,0,1,0.00
2013-6-5,68.7,58.3,52.1,47.1,44.3,42.0,74,60,43,30.60,30.43,5,0,5,0.00
2013-6-6,68.3,58.3,52.7,51.9,46.8,43.0,77,66,52,30.44,30.31,5,0,5,0.00
2013-6-7,70.3,57.9,48.0,54.8,47.8,43.0,83,70,55,30.34,30.27,6,0,6,0.00
2013-6-8,73.7,60.0,48.2,58.4,50.7,43.3,87,73,55,30.45,30.31,4,0,4,0.00
2013-6-9,78.9,64.0,48.2,61.2,53.5,43.5,88,70,53,30.49,30.34,0,0,0,0.00
2013-6-10,65.8,63.0,59.0,61.6,57.8,52.8,90,83,67,30.34,30.15,0,0,0,0.00
2013-6-11,84.5,70.7,62.0,68.3,62.4,56.8,91,76,57,30.27,30.16,8,1,8,0.00
2013-6-12,82.2,66.6,59.5,68.9,60.8,54.3,90,82,61,30.29,30.17,3,0,3,0.00
2013-6-13,78.6,72.3,63.5,59.8,57.3,55.1,78,60,48,30.20,30.14,7,1,7,0.00
2013-6-14,63.1,57.1,54.5,53.0,50.2,47.7,82,78,66,30.49,30.34,2,0,2,0.00
2013-6-15,81.3,63.6,50.9,62.4,52.8,43.5,81,69,51,30.44,30.25,8,0,8,0.00
2013-6-16,84.5,71.8,62.9,69.0,60.6,55.0,89,70,45,30.26,30.11,13,2,13,0.00
2013-6-17,82.2,64.1,54.5,65.7,56.0,49.7,84,75,54,30.37,30.22,7,1,7,0.00
2013-6-18,71.2,60.2,50.0,51.6,47.8,41.4,85,65,45,30.49,30.34,6,0,6,0.00
2013-6-19,77.5,60.1,44.4,53.6,46.3,39.2,84,63,39,30.57,30.47,6,0,6,0.00
2013-6-20,84.0,57.9,48.2,60.4,49.2,42.7,85,74,44,30.57,30.51,3,0,3,0.00
2013-6-21,85.6,70.6,53.4,69.0,58.5,48.0,86,67,49,30.56,30.37,6,0,6,0.00
2013-6-22,89.7,73.3,68.1,73.6,63.4,60.1,79,72,54,30.43,30.32,6,0,6,0.00
2013-6-23,91.0,76.2,61.3,73.6,65.2,56.8,88,71,50,30.42,30.28,10,2,10,0.00
2013-6-24,88.8,77.5,70.5,72.8,66.5,60.1,83,70,55,30.40,30.26,8,2,8,0.00
2013-6-25,80.4,73.1,68.7,69.1,64.7,59.7,86,75,65,30.29,30.19,61,2,61,0.00
2013-6-26,89.0,75.3,63.3,72.8,65.9,59.4,89,74,53,30.24,30.12,3,0,3,0.00
2013-6-27,88.8,72.0,66.7,73.5,66.4,63.3,89,83,59,30.14,30.02,6,0,6,0.00
2013-6-28,78.9,67.0,63.1,68.2,62.5,59.1,91,86,68,30.03,29.93,5,0,5,0.00
2013-6-29,71.4,64.2,60.4,63.1,59.8,56.7,91,86,70,30.16,29.96,4,0,4,0.00
2013-6-30,78.4,66.0,55.2,63.5,56.9,48.2,89,74,55,30.39,30.15,3,0,3,0.00
2013-7-1,77.1,64.0,54.1,57.3,49.4,39.9,78,60,45,30.51,30.38,6,0,6,0.00
2013-7-2,74.1,62.8,54.6,59.2,50.1,40.7,82,64,51,30.50,30.44,6,0,6,0.00
2013-7-3,81.6,65.1,52.8,68.1,57.4,47.8,84,77,60,30.49,30.40,3,0,3,0.00
2013-7-4,82.9,70.2,60.4,67.4,61.2,56.4,88,74,55,30.49,30.43,6,0,6,0.00
2013-7-5,86.5,73.5,61.8,70.8,63.1,57.1,87,71,54,30.48,30.40,5,0,5,0.00
2013-7-6,90.5,75.7,62.9,71.8,64.8,58.0,86,70,50,30.47,30.34,4,0,4,0.00
2013-7-7,82.7,74.5,69.2,72.1,66.9,63.4,85,78,65,30.39,30.31,4,0,4,0.00
2013-7-8,78.9,73.4,69.8,71.6,68.4,65.7,89,85,74,30.37,30.32,7,0,7,0.00
2013-7-9,86.1,74.7,68.5,73.6,68.9,65.4,90,83,63,30.36,30.21,4,0,4,0.00
2013-7-10,83.8,74.8,62.2,70.7,65.1,54.3,91,73,51,30.34,30.13,9,2,9,0.00
2013-7-11,78.9,66.4,56.8,63.9,56.7,51.8,86,72,52,30.48,30.34,4,0,4,0.00
2013-7-12,80.4,65.7,50.9,64.1,55.5,46.1,87,71,49,30.58,30.47,3,0,3,0.00
2013-7-13,86.0,70.4,56.3,68.4,59.8,51.9,88,71,49,30.60,30.52,0,0,0,0.00
2013-7-14,92.8,74.7,59.9,74.2,64.4,55.2,88,72,49,30.65,30.58,1,0,1,0.00
2013-7-15,94.8,81.7,68.1,76.7,70.9,64.1,89,71,53,30.67,30.59,0,0,0,0.00
2013-7-16,96.8,81.0,72.1,79.4,71.9,68.2,89,75,55,30.67,30.57,7,1,7,0.00
2013-7-17,95.1,81.3,72.3,79.0,72.8,66.8,85,76,55,30.63,30.50,7,0,7,0.00
2013-7-18,96.0,82.8,71.4,77.2,71.5,66.9,89,71,50,30.53,30.27,9,2,9,0.00
2013-7-19,93.0,83.1,71.7,75.5,71.4,64.1,82,69,55,30.28,30.05,18,5,18,0.00
2013-7-20,87.4,72.2,64.7,66.4,62.1,53.8,87,72,48,30.35,30.11,11,0,11,0.00
2013-7-21,81.6,67.2,54.1,60.8,53.9,47.0,79,64,43,30.41,30.32,1,0,1,0.00
2013-7-22,85.2,72.3,61.5,71.1,63.2,56.9,89,74,56,30.36,30.11,6,0,6,0.00
2013-7-23,77.3,68.6,58.1,66.7,59.0,45.3,89,72,54,30.31,30.03,8,0,8,0.00
2013-7-24,73.4,65.7,49.8,55.4,51.3,43.8,81,61,49,30.44,30.31,5,0,5,0.00
2013-7-25,82.2,69.2,48.7,61.1,54.4,44.0,86,61,43,30.49,30.41,6,0,6,0.00
2013-7-26,75.0,65.1,57.3,63.7,57.5,50.5,88,77,65,30.44,30.25,6,0,6,0.00
2013-7-27,81.1,66.0,56.8,66.3,59.1,49.6,90,79,57,30.25,30.12,11,2,11,0.00
2013-7-28,69.6,59.5,52.3,57.3,51.6,46.7,85,76,61,30.32,30.17,11,2,11,0.00
2013-7-29,72.3,61.9,55.7,59.3,54.7,51.5,88,78,62,30.55,30.29,6,1,6,0.00
2013-7-30,80.6,64.0,49.8,63.1,54.6,45.4,88,73,51,30.61,30.49,4,0,4,0.00
2013-7-31,68.7,63.5,60.0,63.9,59.4,54.9,90,86,80,30.49,30.27,4,0,4,0.00
2013-8-1,81.1,68.9,60.6,63.6,58.9,52.0,90,73,49,30.29,30.24,9,1,9,0.00
2013-8-2,79.5,65.7,55.5,64.3,57.6,50.0,87,76,59,30.29,30.17,11,2,11,0.00
2013-8-3,78.6,64.5,55.0,61.0,54.8,50.8,88,72,49,30.45,30.28,6,0,6,0.00
2013-8-4,73.5,62.5,54.5,56.6,52.4,49.1,83,71,49,30.56,30.46,5,0,5,0.00
2013-8-5,74.8,61.4,51.4,60.9,53.7,46.5,86,77,56,30.49,30.32,5,0,5,0.00
2013-8-6,77.5,67.4,59.0,67.2,61.1,54.3,87,81,69,30.32,30.22,7,0,7,0.00
2013-8-7,84.0,71.8,62.4,70.7,63.7,59.1,90,77,57,30.32,30.13,14,1,14,0.00
2013-8-8,79.7,66.4,56.3,59.3,55.0,51.8,86,69,45,30.42,30.32,3,0,3,0.00
2013-8-9,59.5,56.9,54.3,52.7,51.0,49.2,83,81,78,30.38,30.35,0,0,0,0.00
2013-8-10,79.5,62.8,52.5,60.1,51.7,46.7,82,68,47,30.53,30.40,3,0,3,0.00
2013-8-11,80.2,63.9,53.7,61.0,54.6,49.0,86,73,50,30.51,30.41,4,0,4,0.00
2013-8-12,82.2,70.4,62.2,67.0,60.7,55.8,85,72,56,30.44,30.20,6,0,6,0.00
2013-8-13,66.3,59.4,54.1,55.9,51.6,46.0,78,75,69,30.33,30.27,6,0,6,0.00
2013-8-14,72.5,54.6,48.7,54.1,45.5,42.6,84,72,49,30.55,30.47,7,0,7,0.00
2013-8-15,78.4,61.0,46.9,60.5,50.1,41.7,84,69,45,30.53,30.42,8,0,8,0.00
2013-8-16,83.1,65.2,50.9,62.7,53.0,45.4,84,67,42,30.58,30.47,2,0,2,0.00
2013-8-17,86.0,66.1,51.6,63.8,54.5,46.5,86,69,42,30.65,30.55,2,0,2,0.00
2013-8-18,86.1,66.6,50.7,65.0,55.0,45.6,86,69,42,30.61,30.47,3,0,3,0.00
2013-8-19,85.6,68.8,54.6,65.4,57.1,48.9,84,68,47,30.50,30.38,7,1,7,0.00
2013-8-20,87.0,71.0,57.7,69.3,60.5,52.7,85,71,49,30.49,30.41,9,1,9,0.00
2013-8-21,89.2,75.0,63.3,71.5,63.5,57.7,86,69,50,30.47,30.32,8,1,8,0.00
2013-8-22,81.1,71.9,64.2,69.4,63.2,57.3,84,75,64,30.47,30.30,7,0,7,0.00
2013-8-23,81.1,66.3,55.0,62.0,54.8,47.9,80,68,49,30.58,30.46,5,0,5,0.00
2013-8-24,86.7,67.0,51.0,65.5,55.4,46.0,87,69,43,30.70,30.58,6,0,6,0.00
2013-8-25,87.8,72.6,58.8,69.4,61.4,53.0,84,69,53,30.65,30.45,11,2,11,0.00
2013-8-26,85.1,76.3,71.4,72.7,67.1,63.6,84,73,62,30.48,30.32,8,2,8,0.00
2013-8-27,75.0,72.3,69.9,71.6,68.2,65.1,90,87,81,30.36,30.23,14,0,14,0.00
2013-8-28,71.2,70.4,69.4,69.0,68.1,66.8,93,92,92,30.23,30.19,0,0,0,0.00
2013-8-30,87.9,78.5,68.9,72.2,69.5,63.6,85,75,58,30.27,30.09,10,3,10,0.00
2013-8-31,75.9,69.5,62.7,65.4,62.8,58.3,88,80,64,30.26,30.17,0,0,0,0.00
2013-9-1,79.5,67.6,58.1,68.0,61.9,54.6,91,82,67,30.25,30.10,0,0,0,0.00
2013-9-2,69.0,63.8,58.2,65.0,56.0,50.9,89,76,64,30.31,30.11,8,0,8,0.00
2013-9-3,78.6,64.9,54.8,60.3,53.4,49.4,83,68,46,30.39,30.29,9,1,9,0.00
2013-9-4,83.3,66.0,55.7,67.6,57.3,49.1,88,74,58,30.50,30.36,8,2,8,0.00
2013-9-5,71.4,58.5,49.6,52.4,46.9,43.1,80,67,44,30.66,30.50,4,0,4,0.00
2013-9-6,78.0,59.6,43.5,59.1,49.7,38.8,86,71,48,30.65,30.40,6,0,6,0.00
2013-9-7,75.0,67.5,61.5,69.2,61.3,53.8,89,81,73,30.41,30.25,6,0,6,0.00
2013-9-8,72.5,64.5,51.9,66.4,55.5,46.3,90,74,54,30.51,30.32,5,0,5,0.00
2013-9-9,79.3,64.1,51.4,69.0,58.0,46.1,86,81,69,30.46,30.20,1,0,1,0.00
2013-9-10,92.1,80.2,71.7,73.1,68.6,64.4,87,70,48,30.33,30.19,10,3,10,0.00
2013-9-11,84.3,76.3,66.9,68.9,65.2,60.3,84,69,58,30.38,30.30,8,1,8,0.00
2013-9-12,78.6,65.9,56.4,61.8,58.3,42.8,87,78,49,30.40,30.26,6,0,6,0.00
2013-9-13,61.7,53.1,44.9,44.0,41.0,37.9,80,65,44,30.53,30.38,6,0,6,0.00
2013-9-14,71.2,53.8,39.5,50.3,42.3,34.2,85,68,42,30.57,30.43,8,1,8,0.00
2013-9-15,60.4,56.1,52.8,53.9,49.9,45.8,88,80,73,30.51,30.40,4,0,4,0.00
2013-9-16,55.7,51.8,47.4,51.9,47.5,40.9,88,86,78,30.71,30.51,5,0,5,0.00
2013-9-17,69.4,55.9,34.7,51.1,45.1,29.9,87,69,48,30.80,30.58,3,0,3,0.00
2013-9-18,79.3,58.2,39.9,61.2,48.2,35.4,87,72,47,30.59,30.37,6,0,6,0.00
2013-9-19,78.0,66.4,58.8,68.7,60.1,51.6,89,80,70,30.39,30.22,6,0,6,0.00
2013-9-20,72.8,68.4,65.1,68.4,63.9,60.4,92,86,78,30.24,30.08,10,2,10,0.00
2013-9-21,67.1,59.6,51.9,60.8,51.7,43.6,86,76,58,30.28,30.06,7,0,7,0.00
2013-9-22,60.0,51.6,45.1,45.2,41.9,39.5,82,70,53,30.49,30.28,5,0,5,0.00
2013-9-23,63.8,51.4,44.2,49.0,42.4,37.9,82,72,54,30.59,30.48,2,0,2,0.00
2013-9-24,44.0,40.7,38.4,38.1,35.5,33.4,83,82,79,30.53,30.51,0,0,0,0.00
2013-9-25,70.1,53.6,40.8,55.9,45.3,36.5,89,75,51,30.42,30.37,3,0,3,0.00
2013-9-26,75.0,56.2,43.7,60.7,47.4,38.8,90,74,45,30.53,30.40,0,0,0,0.00
2013-9-27,77.7,58.2,42.9,59.7,49.3,38.4,88,74,48,30.63,30.53,0,0,0,0.00
2013-9-28,79.5,61.8,47.1,62.4,52.2,42.5,90,73,46,30.57,30.33,6,0,6,0.00
2013-9-29,70.5,61.4,52.3,56.0,53.3,47.1,86,76,47,30.38,30.28,4,0,4,0.00
2013-9-30,69.8,58.1,51.2,57.2,51.2,46.0,89,79,58,30.40,30.28,6,0,6,0.00
2013-10-1,74.1,60.6,47.4,63.5,54.3,42.8,90,80,66,30.32,30.23,11,2,11,0.00
2013-10-2,76.2,61.9,51.0,58.5,51.5,45.4,88,71,39,30.47,30.27,4,0,4,0.00
2013-10-3,79.8,60.3,44.4,66.1,53.8,39.8,88,80,62,30.45,30.26,7,0,7,0.00
2013-10-4,70.5,64.6,58.8,67.1,61.3,55.9,91,89,86,30.45,30.25,2,0,2,0.00
2013-10-5,66.0,61.6,58.6,63.4,59.2,55.7,92,92,90,30.44,30.20,0,0,0,0.00
2013-10-6,69.4,62.8,53.4,66.3,59.9,50.2,93,91,87,30.20,30.04,9,0,9,0.00
2013-10-7,60.6,53.2,48.3,51.7,47.5,42.7,89,82,64,30.45,30.03,9,2,9,0.00
2013-10-8,69.6,52.8,40.4,54.1,44.6,36.8,90,75,50,30.64,30.44,5,0,5,0.00
2013-10-9,71.9,54.2,40.8,55.4,45.2,36.5,88,73,48,30.69,30.57,2,0,2,0.00
2013-10-10,70.8,53.1,39.0,55.8,44.8,34.8,89,75,50,30.61,30.50,2,0,2,0.00
2013-10-11,70.5,53.0,39.0,54.9,44.5,34.8,89,74,50,30.55,30.45,3,0,3,0.00
2013-10-12,78.2,58.1,41.5,59.2,48.8,37.3,89,73,47,30.47,30.35,6,0,6,0.00
2013-10-13,66.0,55.9,0.0,57.1,46.5,-8.6,83,71,52,30.74,30.43,7,0,7,0.00
2013-10-14,60.6,51.5,40.8,44.2,41.2,36.2,84,69,51,30.81,30.65,5,0,5,0.00
2013-10-15,42.4,38.6,36.1,36.3,33.5,31.4,84,82,79,30.65,30.53,0,0,0,0.00
2013-10-16,58.6,53.5,48.7,55.4,49.1,44.3,90,85,81,30.25,30.13,11,2,11,0.00
2013-10-17,51.9,48.8,44.4,46.3,44.6,40.8,89,85,79,30.26,30.11,4,0,4,0.00
2013-10-18,60.6,48.4,40.6,48.7,41.8,37.3,89,79,61,30.24,30.16,12,2,12,0.00
2013-10-19,55.2,46.9,41.1,42.4,39.2,33.3,84,75,56,30.24,30.07,13,2,13,0.00
2013-10-20,54.3,45.9,39.5,42.8,38.6,35.0,87,76,56,30.25,30.11,8,1,8,0.00
2013-10-21,52.1,48.5,40.2,47.0,40.8,29.7,86,75,65,30.21,30.10,12,4,12,0.00
2013-10-22,48.9,40.9,34.3,37.2,31.6,26.0,76,69,61,30.25,30.19,12,3,12,0.00
2013-10-23,48.0,39.2,33.6,36.1,30.9,27.8,84,73,53,30.28,30.21,11,1,11,0.00
2013-10-24,48.9,38.1,32.1,36.3,31.0,27.9,85,76,60,30.52,30.27,10,2,10,0.00
2013-10-25,47.4,39.3,31.1,36.4,30.1,26.2,85,71,54,30.66,30.33,11,3,11,0.00
2013-10-26,47.4,43.2,37.2,41.1,35.4,29.9,83,74,62,30.35,30.07,22,4,22,0.00
2013-10-27,50.5,42.4,34.3,36.5,33.1,28.4,81,70,56,30.40,30.29,11,2,11,0.00
2013-10-28,43.7,40.2,35.4,33.9,31.0,25.8,78,70,61,30.81,30.37,6,0,6,0.00
2013-10-29,42.6,35.3,28.9,33.5,28.1,21.6,85,75,68,30.84,30.62,0,0,0,0.00
2013-10-30,57.3,42.5,30.0,47.2,36.8,26.3,88,81,68,30.62,30.27,2,0,2,0.00
2013-10-31,60.0,56.2,50.1,57.7,53.1,44.2,92,89,80,30.27,29.42,6,0,6,0.00
2013-11-1,58.8,49.0,46.0,56.5,45.0,42.2,92,86,81,30.03,29.41,20,6,20,0.00
2013-11-2,46.0,42.5,36.5,43.0,36.8,29.9,89,81,65,30.51,30.02,7,0,7,0.00
2013-11-3,43.5,37.2,29.1,35.7,30.5,24.5,85,77,68,30.81,30.51,0,0,0,0.00
2013-11-4,49.6,40.5,30.9,33.0,29.4,25.5,82,66,47,30.81,30.60,6,0,6,0.00
2013-11-5,58.8,50.9,43.5,47.8,42.1,32.5,77,72,65,30.67,30.46,3,0,3,0.00
2013-11-6,55.5,49.5,0.0,52.1,44.5,-2.3,90,83,70,30.46,30.05,13,2,13,0.00
2013-11-7,41.0,38.2,36.3,34.7,30.4,27.3,81,74,61,30.49,30.36,10,2,10,0.00
2013-11-8,43.8,36.5,30.0,32.2,27.4,23.3,80,70,57,30.62,30.46,9,2,9,0.00
2013-11-9,49.8,43.8,34.3,40.4,34.5,27.3,76,70,61,30.49,30.09,17,4,17,0.00
2013-11-10,46.0,41.3,33.6,33.8,30.3,25.1,73,65,55,30.61,30.22,14,3,14,0.00
2013-11-11,39.5,34.5,27.1,34.0,27.0,16.5,84,74,64,30.72,30.38,11,1,11,0.00
2013-11-12,35.2,28.2,23.5,23.7,18.4,16.1,79,67,53,30.90,30.72,9,1,9,0.00
2013-11-13,42.4,31.7,22.4,25.6,20.7,15.8,78,65,47,30.86,30.41,20,5,20,0.00
2013-11-14,47.1,39.1,32.5,33.0,28.0,24.4,73,65,56,30.42,30.26,12,4,12,0.00
2013-11-15,47.3,41.8,32.9,34.8,30.3,25.4,74,64,59,30.38,30.29,6,1,6,0.00
2013-11-16,54.1,43.2,30.0,48.2,36.8,23.9,86,78,72,30.42,30.07,5,0,5,0.00
2013-11-17,61.1,54.2,0.0,57.1,50.4,-2.7,91,88,80,30.07,29.46,22,2,22,0.00
2013-11-18,44.9,38.7,35.2,40.5,30.0,24.7,85,71,64,30.48,29.72,20,6,22,0.00
2013-11-19,39.9,33.8,26.7,26.1,22.7,19.5,75,64,54,30.77,30.49,4,0,4,0.00
2013-11-20,43.8,34.1,25.8,31.6,25.6,20.2,82,71,58,30.79,30.58,0,0,0,0.00
2013-11-21,46.5,40.0,0.0,39.4,34.2,-3.7,86,80,70,30.63,30.53,0,0,0,0.00
2013-11-22,41.9,34.3,0.0,37.7,27.6,0.0,88,76,67,30.74,30.51,8,0,8,0.00
2013-11-23,28.2,23.8,18.1,22.2,15.6,10.1,81,71,54,30.87,30.61,8,1,8,0.00
2013-11-24,25.1,20.0,15.2,15.0,11.5,8.4,77,69,62,30.93,30.67,11,1,11,0.00
2013-11-25,31.2,26.8,21.9,26.4,18.1,10.8,85,70,57,30.68,30.33,14,3,14,0.00
2013-11-26,33.6,31.1,25.8,28.9,26.5,18.3,86,83,74,30.39,30.29,11,0,11,0.00
2013-11-27,25.7,22.5,19.4,18.1,13.2,9.9,78,68,54,30.55,30.36,9,0,9,0.00
2013-11-28,24.6,20.3,17.4,19.0,14.4,10.7,80,78,71,30.65,30.55,0,0,0,0.00
2013-11-29,25.5,21.1,12.7,20.4,16.5,7.7,84,82,80,31.01,30.88,0,0,0,0.00
2013-11-30,40.1,31.8,19.9,30.3,25.0,15.5,84,76,68,30.89,30.40,5,0,5,0.00
2013-12-1,37.0,34.5,31.8,30.8,28.7,26.0,83,79,76,30.45,30.37,2,0,2,0.00
2013-12-2,37.9,32.8,28.2,27.8,25.6,22.2,81,75,65,30.39,30.26,0,0,0,0.00
2013-12-3,32.5,29.8,24.9,29.3,25.8,20.2,88,85,78,30.30,30.22,0,0,0,0.00
2013-12-4,51.6,36.5,0.0,49.3,33.8,-1.8,92,90,88,30.26,29.90,6,0,6,0.00
2013-12-5,51.6,38.1,27.1,49.3,30.0,17.6,92,73,60,30.48,29.89,22,7,22,0.00
2013-12-6,26.9,23.2,19.9,17.7,13.6,0.0,70,67,63,30.75,30.48,10,2,10,0.00
2013-12-7,22.8,19.4,10.5,12.3,9.4,2.8,71,65,60,30.96,30.74,11,2,11,0.00
2013-12-8,24.4,16.5,9.1,20.0,9.5,2.2,83,74,66,30.93,30.35,2,0,2,0.00
2013-12-9,29.4,23.8,14.7,24.6,18.0,5.7,85,78,66,30.42,30.18,21,4,21,0.00
2013-12-10,19.5,13.8,4.8,11.3,6.1,-2.0,76,71,65,30.49,30.21,13,4,13,0.00
2013-12-11,21.3,12.8,5.9,11.8,4.4,-1.5,78,69,58,30.76,30.49,11,2,11,0.00
2013-12-12,20.3,13.5,5.7,13.8,6.7,-1.4,77,74,71,30.77,30.45,16,4,16,0.00
2013-12-13,23.5,20.2,0.0,16.1,13.0,-5.0,79,73,68,30.71,30.44,9,1,9,0.00
2013-12-14,20.4,17.4,11.6,15.8,11.9,4.3,82,79,71,30.71,30.21,3,0,3,0.00
2013-12-15,23.7,18.2,9.6,17.8,12.0,2.4,83,77,69,30.33,30.13,12,2,12,0.00
2013-12-16,18.3,10.5,-0.2,9.9,2.6,-6.3,78,71,61,30.55,30.33,22,0,22,0.00
2013-12-17,26.2,20.7,14.7,21.4,15.5,7.4,82,80,72,30.39,30.16,10,0,10,0.00
2013-12-18,28.0,25.3,21.3,20.9,18.2,12.0,82,75,65,30.43,30.17,13,2,13,0.00
2013-12-19,34.7,25.5,16.7,27.9,18.6,10.5,82,75,68,30.38,30.14,3,0,3,0.00
2013-12-20,31.2,29.0,27.1,28.1,25.5,23.2,88,87,82,30.30,30.14,0,0,0,0.00
2013-12-21,30.3,28.5,27.1,26.7,25.0,22.8,88,86,84,30.29,30.13,0,0,0,0.00
2013-12-22,30.0,27.2,22.1,26.4,22.9,16.9,87,84,78,30.37,30.02,0,0,0,0.00
2013-12-23,27.1,21.3,13.8,19.2,15.2,7.0,84,77,68,30.67,30.37,0,0,0,0.00
2013-12-24,17.2,10.5,4.1,7.8,3.2,-1.8,77,72,63,30.85,30.66,6,0,6,0.00
2013-12-25,23.9,18.1,6.9,19.4,12.7,0.6,83,79,75,30.82,30.41,6,0,6,0.00
2013-12-26,26.6,23.2,20.4,19.8,17.5,13.1,85,79,69,30.59,30.35,13,1,13,0.00
2013-12-27,34.8,27.1,21.3,29.5,22.2,16.6,86,82,74,30.64,30.31,22,1,22,0.00
2013-12-28,40.6,34.9,30.2,33.6,29.5,25.4,85,81,75,30.42,30.18,8,2,8,0.00
2013-12-29,36.1,29.1,17.2,30.5,22.2,7.7,84,75,66,30.40,30.08,6,0,6,0.00
2013-12-30,21.0,15.2,9.6,9.3,5.7,1.1,72,66,59,30.63,30.40,8,0,8,0.00
2013-12-31,17.2,13.4,9.6,7.6,5.4,2.6,76,70,63,30.69,30.40,14,2,14,0.00
2014-1-1,14.5,9.0,0.8,3.7,0.3,-6.4,74,67,57,30.79,30.68,2,0,2,0.00
2014-1-2,11.4,8.8,1.4,3.7,-0.0,-6.8,73,67,60,30.70,30.57,8,0,8,0.00